IRIDIUM 3 [+]

Last updated on Jan. 26, 2018, 12:19 a.m. UTC

1 25431U 98048A   18025.50946086  .00575520 -10882-5  77482-3 0  9998
2 25431  86.3885 162.5784 0379254 348.1076  11.1396 15.39529616 17519

Satellite is not in orbit.